Location: Gebenbach
(49.5378°N, 11.8735°E)
Time: 14:32:12
(UTC+00:00)

Cosmos 968 Rocket - Pass Details

Date: 29 October 2020
Orbit: 741 x 770 km, 74.0° (Epoch: 28 November)

Event Time Altitude Azimuth Distance (km) Brightness Sun altitude
Rises 16:34:56 0° 339° (NNW) 3,243 6.9 -7.0°
Reaches altitude 10° 16:37:24 10° 345° (NNW) 2,309 6.0 -7.4°
Maximum altitude 16:42:29 49° 60° (ENE) 976 3.7 -8.2°
Drops below altitude 10° 16:47:29 10° 135° (SE) 2,275 5.6 -9.0°
Sets 16:49:54 0° 141° (SE) 3,191 6.4 -9.4°
